Feather Falls, CA

1:19 PM PDT on September 30, 2016 (GMT -0700)
Oroville Municipal

Weather History for KOVE - April, 2013

Change the Weather History Date:

Thursday, April 18, 2013

  Actual Average Record
Temperature  
Mean Temperature 59 °F -  
Max Temperature 75 °F 70 °F 92 °F (1954)
Min Temperature 43 °F 44 °F 39 °F (1959)
Degree Days  
Heating Degree Days 6    
Growing Degree Days 9 (Base 50)    
Moisture  
Dew Point 34 °F    
Average Humidity 38    
Maximum Humidity 62    
Minimum Humidity 21    
Precipitation  
Precipitation 0.00 in - - ()
Sea Level Pressure  
Sea Level Pressure 30.24 in    
Wind  
Wind Speed 6 mph (NNW)    
Max Wind Speed 12 mph    
Max Gust Speed 21 mph    
Visibility 10 miles    
Events      
Averages and records for this station are not official NWS values.
T = Trace of Precipitation, MM = Missing Value Source: NWS Daily Summary

Daily Weather History Graph

Daily Weather History Graph

Search for Another Location

Airport or City:

Trip Planner

Search our weather history database for the weather conditions in past years. The results will help you decide how hot, cold, wet, or windy it might be!

Date:

Astronomy

Apr. 18, 2013 Rise Set
Actual Time 6:24 AM PDT 7:47 PM PDT
Civil Twilight 5:56 AM PDT 8:15 PM PDT
Nautical Twilight 5:22 AM PDT 8:49 PM PDT
Astronomical Twilight 4:47 AM PDT 9:25 PM PDT
Moon 12:41 PM PDT (4/18) 2:05 AM PDT (4/18)
Length of Visible Light 14h 19m
Length of Day
13h 23m
First Quarter, 53% of the Moon is Illuminated
Apr 18
First Quarter
Apr 25
Full
May 2
Last Quarter
May 9
New
May 17
First Quarter

Hourly Weather History & Observations

Time (PDT) Temp. Windchill Dew Point Humidity Pressure Visibility Wind Dir Wind Speed Gust Speed Precip Events Conditions
12:53 AM 50.0 °F - 30.9 °F 48% 30.27 in 10.0 mi North 6.9 mph - N/A   Clear
1:53 AM 48.0 °F - 30.9 °F 52% 30.26 in 10.0 mi NNE 3.5 mph - N/A   Clear
2:53 AM 48.9 °F - 28.0 °F 44% 30.26 in 10.0 mi North 3.5 mph - N/A   Clear
3:53 AM 48.0 °F - 28.9 °F 48% 30.25 in 10.0 mi NNE 3.5 mph - N/A   Clear
4:53 AM 43.0 °F 39.5 °F 30.9 °F 62% 30.26 in 10.0 mi NW 5.8 mph - N/A   Clear
5:53 AM 45.0 °F 42.6 °F 30.0 °F 56% 30.26 in 10.0 mi NNW 4.6 mph - N/A   Clear
6:53 AM 45.0 °F 41.2 °F 30.0 °F 56% 30.27 in 10.0 mi NW 6.9 mph - N/A   Clear
7:53 AM 52.0 °F - 32.0 °F 47% 30.27 in 10.0 mi NNW 9.2 mph - N/A   Clear
8:53 AM 64.0 °F - 27.0 °F 25% 30.27 in 10.0 mi North 9.2 mph 20.7 mph N/A   Clear
9:53 AM 69.1 °F - 27.0 °F 21% 30.27 in 10.0 mi North 8.1 mph 16.1 mph N/A   Clear
10:53 AM 68.0 °F - 36.0 °F 31% 30.28 in 10.0 mi NW 9.2 mph - N/A   Clear
11:53 AM 71.1 °F - 34.0 °F 26% 30.27 in 10.0 mi NW 10.4 mph 17.3 mph N/A   Clear
12:53 PM 72.0 °F - 33.1 °F 24% 30.26 in 10.0 mi WNW 11.5 mph 19.6 mph N/A   Clear
1:53 PM 73.9 °F - 32.0 °F 21% 30.25 in 10.0 mi Variable 4.6 mph - N/A   Clear
2:53 PM 73.9 °F - 35.1 °F 24% 30.23 in 10.0 mi West 6.9 mph - N/A   Clear
3:53 PM 75.9 °F - 34.0 °F 22% 30.21 in 10.0 mi NW 3.5 mph - N/A   Clear
4:53 PM 75.9 °F - 36.0 °F 23% 30.19 in 10.0 mi NW 5.8 mph - N/A   Clear
5:53 PM 75.0 °F - 37.9 °F 26% 30.19 in 10.0 mi WNW 4.6 mph - N/A   Clear
6:53 PM 73.9 °F - 37.9 °F 27% 30.18 in 10.0 mi West 3.5 mph - N/A   Clear
7:53 PM 70.0 °F - 37.0 °F 30% 30.18 in 10.0 mi Calm Calm - N/A   Clear
8:53 PM 62.1 °F - 43.0 °F 50% 30.19 in 10.0 mi NE 3.5 mph - N/A   Clear
9:53 PM 61.0 °F - 42.1 °F 50% 30.22 in 10.0 mi East 4.6 mph - N/A   Clear
10:53 PM 60.1 °F - 42.1 °F 51% 30.22 in 10.0 mi East 5.8 mph - N/A   Clear
11:53 PM 59.0 °F - 41.0 °F 51% 30.22 in 10.0 mi East 6.9 mph - N/A   Clear